SS 2

operational
NORAD ID: 10544 Int'l Des: 1977-112 Owner: NRO/NRL Country: US
LEO

Über SS 2

Beschreibung wird geladen...

Live-Position

3D-Globus wird geladen...

Nächste Überflüge

Höhenverlauf

Altitude vs Time

uPlot chart will show altitude changes over time

Zweizeiliger Elementsatz

1 10544U 77112E 26062.58439149 .00001038 00000-0 30123-3 0 9995
2 10544 63.3355 279.2352 0522880 160.8457 201.3094 13.91095240337700
Epoch: 3. März 2026 • Age: 38 hours

Aktueller Status

Höhe 1276.6 km
Geschwindigkeit 7.05 km/s
Subsatellitenpunkt -39.89°S, 119.63°W
Startdatum 8. Dez. 1977
Alter 48.2 years
Typ other

Technische Details

Klassifizierung Payload
Masse 200.00 kg
Trockenmasse 200.00 kg
Gesamtmasse 200.00 kg
Länge 0.90 m
Durchmesser 0.40 m
Spannweite 10.00 m
Form Box + Ant
Hersteller NRL
Bus-Typ NOSS SSU
Phasenstatus In Orbit
Besitzer/Staat NRO/NRL/US

Große Konstellationen

Loading constellations...